AirNav   ATP
 
 1041 users online  

9A0 Lumpkin County-Wimpys Airport
Dahlonega, Georgia, USA

GOING TO DAHLONEGA?


FAA INFORMATION EFFECTIVE 29 MARCH 2018

Location

FAA Identifier: 9A0
Lat/Long: 34-34-59.3000N / 084-01-11.9000W
34-34.988333N / 084-01.198333W
34.5831389 / -84.0199722
(estimated)
Elevation: 1311 ft. / 400 m (estimated)
Variation: 03W (1985)
From city: 3 miles NW of DAHLONEGA, GA
Time zone: UTC -4 (UTC -5 during Standard Time)
Zip code: 30533

Airport Operations

Airport use: Open to the public
Activation date: 08/1956
Control tower: no
ARTCC: ATLANTA CENTER
FSS: MACON FLIGHT SERVICE STATION
NOTAMs facility: MCN (NOTAM-D service available)
Attendance: UNATNDD
Wind indicator: yes
Segmented circle: no
Lights: RDO CTL

Airport Communications

CTAF: 122.9
WX AWOS-3 at DZJ (16 nm N): 119.325 (706-745-9271)

Nearby radio navigation aids

VOR radial/distance  VOR name  Freq  Var
HRSr193/22.2HARRIS VORTAC109.8000E
ODFr259/36.3FOOTHILLS VORTAC113.4000E

 
NDB name  Hdg/Dist  Freq  Var  ID
FLOWERY BRANCH349/23.536503WFKV ..-. -.- ...-
CHERO054/30.541505WDJD -.. .--- -..
COMMERCE328/39.924406WDDA -.. -.. .-

Airport Services

Fuel available: 100LL
24 HOUR SELF SERVE WITH CREDIT CARD.
Parking: tiedowns
Airframe service: NONE
Powerplant service: NONE
Bottled oxygen: NONE
Bulk oxygen: NONE

Runway Information

Runway 15/33

Dimensions: 3090 x 50 ft. / 942 x 15 m
Surface: asphalt, in good condition
Weight bearing capacity: 
Single wheel: 12.0
Runway edge lights: non-standard
NSTD LIRL THE LENGTH OF THE RY. NO THLD LIGHTS. LIRL OTS INDEFLY.
RUNWAY 15  RUNWAY 33
Latitude: 34-35.210333N34-34.767167N
Longitude: 084-01.350167W084-01.046000W
Gradient: 2.0%2.0%
Traffic pattern: leftleft
Displaced threshold: 754 ft.695 ft.
Markings: basic, in good conditionbasic, in good condition
Obstructions: 137 ft. trees, 1236 ft. from runway, 225 ft. left of centerline, 8:1 slope to clear
8:1 APCH SLOPE TO DSPLCD THLD, TREES 728FT OUT & 200FT RIGHT.
22 ft. trees, 310 ft. from runway, 50 ft. right of centerline, 5:1 slope to clear
APCH SLOPE 25:1 TO DSPLCD THLD, TREELINE 2,325 FROM DSPLCD THLD.

Airport Ownership and Management from official FAA records

Ownership: Publicly-owned
Owner: LUMPKIN COUNTY
99 COURTHOUSE HILL
DAHLONEGA, GA 30533
Phone 706-864-3742
Manager: LARRY REITER, PUBLIC WORKS DIR
25 SHORT STREET, SUITE 10
DAHLONEGA, GA 30533
Phone 706-864-6894
AIRPORT ADDRESS: 1682 CAMP WAHSEGA RD

Airport Operational Statistics

Aircraft based on the field: 27
Single engine airplanes: 25
Multi engine airplanes: 1
Helicopters: 1
    
Aircraft operations: avg 107/week *
54% local general aviation
36% transient general aviation
11% military
* for 12-month period ending 31 December 2016

Additional Remarks

ARPT CLSD TO ACFT AT NIGHT, DAYTIME USE ONLY.
DEER & WILDLIFE ON OR INVOF ARPT.

Instrument Procedures

There are no published instrument procedures at 9A0.

Some nearby airports with instrument procedures:

KDZJ - Blairsville Airport (16 nm N)
KGVL - Lee Gilmer Memorial Airport (21 nm SE)
KJZP - Pickens County Airport (23 nm W)
KAJR - Habersham County Airport (23 nm E)
KCNI - Cherokee County Airport (26 nm SW)
 
Loc | Ops | Rwys | IFR | FBO | Links
Com | Nav | Svcs | Stats | Notes

AirNav Hotels Sweepstakes
 
Area around 9A0 (Lumpkin County-Wimpys Airport)
 
Road maps at: MapQuest Bing Google
 
Aerial photo
WARNING: Photo may not be current or correct
Aerial photo of 9A0 (Lumpkin County-Wimpys Airport)
Photo by Jerry Morris
Photo taken 17-Sep-2015
looking south.

Do you have a better or more recent aerial photo of Lumpkin County-Wimpys Airport that you would like to share? If so, please send us your photo.

 
Sectional chart

 
Airport distance calculator
Flying to Lumpkin County-Wimpys Airport? Find the distance to fly.

From to 9A0

Sunrise and sunset
Times for 24-Apr-2018
 Local
(UTC-4)
 Zulu
(UTC)
Morning civil twilight06:2810:28
Sunrise06:5510:55
Sunset20:1400:14
Evening civil twilight20:4000:40

Current date and time
Zulu (UTC)  25-Apr-2018 01:38:00
Local (UTC-4)  24-Apr-2018 21:38:00
 
METAR
KDZJ 
16nm N 
250115Z AUTO 24003KT 10SM SCT060 SCT085 SCT110 12/11 A2990 RMK AO2 T01180110
KGVL 
21nm SE 
250053Z AUTO 28006KT 10SM -RA OVC080 15/13 A2987 RMK AO2 RAB05 SLP106 P0000 T01500133
KJZP 
23nm W 
250115Z AUTO 29003KT 10SM SCT055 A2991 RMK AO2 PWINO PNO
KAJR 
23nm E 
250115Z AUTO 32005KT 10SM OVC095 15/14 A2985 RMK AO2 T01500143
K49A 
25nm W 
250115Z AUTO 00000KT 10SM BKN035 BKN041 OVC050 15/12 A2991 RMK AO2 T01450115
KCNI 
26nm SW 
250115Z AUTO 29003KT 10SM SCT050 15/12 A2989 RMK AO2
TAF
KPDK 
44nm S 
231955Z 2320/2418 10007KT 5SM SHRA OVC010 TEMPO 2320/2323 4SM TSRA BKN006CB FM232300 10008KT 4SM SHRA OVC012 FM240300 VRB04KT P6SM VCSH OVC020 FM240700 VRB03KT P6SM OVC020 FM240900 VRB03KT P6SM OVC008 FM241500 26006KT P6SM OVC012
KRYY 
45nm SW 
241747Z 2418/2518 32010KT P6SM VCSH BKN015 BKN030 TEMPO 2419/2423 P6SM -SHRA OVC020 FM250000 30011KT P6SM SCT035 BKN070 FM250700 30010KT P6SM BKN025 FM251000 31008KT P6SM BKN015 FM251500 31012G20KT P6SM SCT030
KMGE 
47nm SW 
232216Z 2322/2503 08009KT 4800 -SHRA OVC008 QNH2989INS TEMPO 2322/2401 08010G20KT 4800 -TSRA OVC015CB BECMG 2400/2401 05006KT 8000 -SHRA OVC006 QNH2986INS BECMG 2405/2406 VRB06KT 4800 BR OVC006 QNH2984INS BECMG 2414/2415 28010G15KT 9999 NSW OVC015 QNH2987INS TX18/2417Z TN14/2411Z
NOTAMs
Click for the latest NOTAMs
NOTAMs are issued by the DoD/FAA and will open in a separate window not controlled by AirNav.

 

 
 

FBO, Fuel Providers, and Aircraft Ground Support

  
 Business Name 
 
 Contact 
 
 Services / Description 
 
Fuel Prices
 
Comments
  
Lumpkin County-Wimpy's Airport 706-864-6894
no information available

If you are affiliated with Lumpkin County-Wimpy's Airport and would like to show here your services, contact info, web link, logo, and more, click here
100LL
SS $4.15 
 Updated 23-Apr-2018
 
   write
SS=Self service
Update Fuel Prices
 

Would you like to see your business listed on this page?

 If your business provides an interesting product or service to pilots, flight crews, aircraft, or users of the Lumpkin County-Wimpys Airport, you should consider listing it here.  To start the listing process, click on the button below
 
Add a business
 

Other Pages about Lumpkin County-Wimpys Airport

Update a link
 
Copyright © AirNav, LLC. All rights reserved. Privacy Policy  Contact